Dewpoint
53 54 53 53 54 54 52 52 52 52 52 52 52 52 53 53 54 55 57 58 59 60 62 63 63 62 62 62 62 62 62 62 63 63 63 63 62 62 62 62 61 61
51 52 52 52 52 52 52 52 51 51 51 51 51 51 52 52 52 52 53 55 56 57 59 59 59 60 61 61 61 60 60 61 61 62 62 62 62 62 62 62 61 62
50 50 50 50 49 49 50 51 52 50 50 50 50 50 51 51 50 50 51 52 53 56 52 51 52 53 54 58 60 60 60 61 62 62 62 62 62 62 62 62 61 61
50 50 50 49 49 48 49 49 49 48 48 48 48 49 49 48 48 49 49 51 52 48 47 48 49 49 50 51 53 57 59 61 62 62 62 62 62 62 62 62 62 62
48 48 49 49 48 48 48 48 47 47 46 47 46 47 47 46 47 47 48 49 50 46 46 46 46 47 47 47 48 51 52 54 57 59 60 61 61 62 62 61 61 61
48 48 48 48 47 47 46 47 46 46 46 46 45 46 45 45 45 45 46 47 48 45 43 44 44 44 45 44 46 46 47 49 50 51 53 56 60 62 62 62 61 61
47 47 47 47 46 46 46 46 46 46 45 45 45 44 44 44 44 44 44 45 47 45 42 42 42 42 41 42 42 42 43 44 46 48 50 51 55 58 61 62 61 61
46 47 47 47 46 46 46 46 46 45 45 45 44 44 44 44 44 44 43 43 45 45 42 41 41 41 41 41 41 41 41 42 43 43 45 47 51 53 56 60 61 61
45 45 46 46 46 46 45 46 46 46 45 44 44 44 44 44 43 43 43 43 43 45 42 41 41 41 41 40 40 40 40 41 41 41 42 44 47 50 52 55 58 60
44 44 44 44 44 44 45 45 46 46 46 44 44 44 43 44 44 43 42 42 42 43 43 41 40 40 40 40 40 40 40 40 40 41 41 42 44 46 50 52 55 58
43 43 42 43 43 43 43 44 44 45 46 45 44 44 44 43 43 43 42 42 43 42 41 40 39 39 39 39 39 39 40 40 40 41 41 41 42 44 48 50 53 56
43 43 42 42 42 42 42 42 43 43 43 44 44 44 44 44 43 42 43 41 42 42 40 39 39 39 39 39 39 39 39 40 40 41 41 42 42 43 44 47 51 54
43 43 43 42 42 42 43 42 42 42 42 43 43 42 42 43 43 42 42 41 42 41 41 40 39 39 39 39 39 39 39 39 40 41 41 42 43 43 44 46 49 53
43 43 43 43 43 42 42 42 42 41 41 42 42 41 41 41 42 42 41 41 41 41 41 41 39 39 39 39 39 39 39 39 40 41 42 42 43 44 45 47 50 54
42 43 43 42 42 41 41 42 42 42 41 41 41 41 42 41 41 41 40 40 40 40 40 40 39 39 39 39 39 39 39 40 40 41 42 43 44 46 47 49 52 54
38 39 40 41 41 41 40 41 41 42 41 40 40 40 40 41 40 40 40 40 39 39 39 40 39 39 41 40 40 39 39 40 40 41 41 42 43 44 47 47 48 48
36 36 36 36 38 39 40 40 40 41 41 40 40 40 40 40 39 39 39 39 39 39 38 39 39 39 38 38 38 38 40 40 40 40 41 41 42 43 44 45 45 46
35 34 34 34 35 35 37 38 39 40 41 40 39 39 39 39 39 39 39 39 39 38 38 39 38 39 37 38 38 38 39 40 39 40 41 40 41 41 43 43 43 44
34 33 33 33 34 35 35 36 37 38 39 40 39 39 39 39 39 39 39 39 39 38 38 38 38 39 37 38 37 37 38 39 39 40 40 40 40 40 41 41 42 43
34 33 32 33 33 34 34 35 36 36 37 40 40 38 38 38 38 38 38 38 39 38 38 38 38 39 37 37 37 37 37 38 39 39 40 39 39 39 40 41 42 42
35 33 33 32 33 33 33 34 34 35 36 37 38 38 38 37 37 37 38 38 38 38 38 37 38 38 37 37 37 37 37 38 38 39 39 39 38 39 39 39 40 42
35 33 33 32 32 32 33 33 33 34 34 35 36 36 38 37 37 37 37 37 37 37 37 36 37 37 37 37 37 37 38 38 37 37 38 39 38 38 38 38 39 40
35 34 34 33 33 33 32 33 33 34 35 36 34 34 35 37 37 36 36 37 37 36 36 35 36 37 36 36 37 37 38 37 37 36 37 38 38 38 37 37 38 40
35 34 34 34 33 33 33 33 33 33 34 36 34 33 33 35 37 35 34 35 36 35 36 35 35 36 36 36 36 37 38 37 36 36 36 37 37 37 37 37 38 42
35 34 33 33 33 34 34 33 33 34 34 33 33 33 33 33 37 35 34 33 34 35 37 35 35 36 36 35 36 36 37 37 37 36 36 36 37 36 36 37 37 39
36 36 35 33 33 33 34 34 35 33 33 32 32 32 31 32 32 34 33 33 33 33 34 34 34 34 36 35 36 36 36 37 37 36 36 36 36 36 36 36 37 37